This is the latest recevied weather packets stored in our database for station/object KF0WJA. If no packets are shown the sender has not sent any weather packets the latest 10 day(s).
| Time | Temp. | Humidity | Pressure | Rain* | Wind** | Luminosity | Snow |
|---|---|---|---|---|---|---|---|
| 1787363958 | 28.89° C | 62% | 1018.3 hPa | 0 mm | - | 0 W/m² | - |
| 1787363657 | 29.44° C | 60% | 1018.1 hPa | 0 mm | - | 0 W/m² | - |
| 1787363352 | 30° C | 59% | 1017.9 hPa | 0 mm | - | 0 W/m² | - |
| 1787363046 | 30° C | 58% | 1017.9 hPa | 0 mm | - | 0 W/m² | - |
| 1787362742 | 30.56° C | 57% | 1018 hPa | 0 mm | - | 0 W/m² | - |
| 1787362438 | 30.56° C | 57% | 1017.6 hPa | 0 mm | - | 0 W/m² | - |
| 1787362137 | 31.11° C | 55% | 1017.9 hPa | 0 mm | - | 0 W/m² | - |
| 1787361831 | 31.67° C | 54% | 1017.8 hPa | 0 mm | - | 0 W/m² | - |
| 1787361526 | 32.22° C | 52% | 1018 hPa | 0 mm | - | 0 W/m² | - |
| 1787361221 | 32.78° C | 50% | 1018 hPa | 0 mm | - | 2 W/m² | - |
| 1787360916 | 32.78° C | 48% | 1017.8 hPa | 0 mm | - | 3 W/m² | - |
| 1787360612 | 33.33° C | 46% | 1018.1 hPa | 0 mm | - | 8 W/m² | - |
| 1787360306 | 32.78° C | 47% | 1017.9 hPa | 0 mm | - | 14 W/m² | - |
| 1787360001 | 33.33° C | 48% | 1017.8 hPa | 0 mm | - | 19 W/m² | - |
| 1787359697 | 33.89° C | 50% | 1018 hPa | 0 mm | - | 22 W/m² | - |
| 1787359393 | 34.44° C | 48% | 1018 hPa | 0 mm | - | 27 W/m² | - |
| 1787359093 | 35° C | 48% | 1018 hPa | 0 mm | - | 32 W/m² | - |
| 1787358788 | 35° C | 45% | 1018 hPa | 0 mm | - | 44 W/m² | - |
| 1787358487 | 35.56° C | 44% | 1018 hPa | 0 mm | - | 53 W/m² | - |
| 1787358182 | 36.11° C | 43% | 1017.9 hPa | 0 mm | - | 62 W/m² | - |
| 1787357878 | 36.11° C | 41% | 1018.2 hPa | 0 mm | - | 49 W/m² | - |
| 1787357573 | 36.11° C | 40% | 1018 hPa | 0 mm | - | 85 W/m² | - |
| 1787357269 | 35.56° C | 41% | 1018.1 hPa | 0 mm | - | 103 W/m² | - |
| 1787356964 | 36.67° C | 39% | 1018.1 hPa | 0 mm | - | 54 W/m² | - |
* Rain latest hour (hover to see other rain measurements)
** Current wind speed in m/s (hover to see current wind gust speed)